Regional Weather Roundup
Issued by NWS Memphis, TN

Home | Current Version | Previous Version | Text Only | Print | Product List | Glossary On
Versions: 1 2 3 4 5 6 7 8 9 10 11 12 13 14 15 16 17 18 19 20 21 22 23 24 25 26 27 28 29 30 31 32 33 34 35 36 37 38 39 40 41 42 43 44 45 46 47 48 49 50
000
ASUS44 KMEG 181610
RWRMEG
MEMPHIS CWA HOURLY WEATHER ROUNDUP
NATIONAL WEATHER SERVICE MEMPHIS TN
1100 AM CDT SAT APR 18 2015

...WEST TENNESSEE...

CITY           SKY/WX    TMP DP  RH WIND       PRES   REMARKS
MEMPHIS INTL   PTSUNNY   72  63  73 CALM      30.01R
NWS MEMPHIS      N/A     69 N/A N/A MISG        N/A
JACKSON        CLOUDY    68  61  78 E10       29.97F
LEXINGTON      SUNNY     70  63  78 E7        29.99S
SAVANNAH       MOSUNNY   72  32  23 E6        29.98S
DYERSBURG      CLOUDY    70  54  56 E8        30.00R
UNION CITY     SUNNY     70  32  24 VRB5      30.00R
PARIS          SUNNY     70  61  73 E6        30.01S


...EASTERN ARKANSAS...

CITY           SKY/WX    TMP DP  RH WIND       PRES   REMARKS
JONESBORO      CLOUDY    68  63  84 E5        30.00R
WEST MEMPHIS   PTSUNNY   70  64  81 E6        29.99R
BATESVILLE     CLOUDY    64  63  94 E5        29.99F
NEWPORT        CLOUDY    69  65  87 VRB5      30.01S
WALNUT RIDGE   CLOUDY    68  63  83 SE6       30.01R
BLYTHEVILLE    PTSUNNY   72  65  78 E7        30.00R
SEARCY         CLOUDY    67  64  90 VRB3      30.00S
STUTTGART      PTSUNNY   70  61  73 E9        29.96F
PINE BLUFF     CLOUDY    70  63  78 E14       29.95S
MONTICELLO     CLOUDY    69  63  81 SE6       29.95S


...NORTH MISSISSIPPI...

CITY           SKY/WX    TMP DP  RH WIND       PRES   REMARKS
TUPELO         CLOUDY    66  60  81 S7        29.99R
OXFORD         CLOUDY    63  59  88 SE8       30.01R
OLIVE BRANCH   PTSUNNY   66  66 100 S12       30.00R
TUNICA         CLOUDY    68  63  83 S5        30.00R
CLARKSDALE     CLOUDY    68  64  88 CALM      29.99S
CORINTH        CLOUDY    68  63  83 E9        29.97F
GREENWOOD      CLOUDY    67  60  78 SE8       29.95F
COLUMBUS       CLOUDY    66  62  85 SE8       29.97F
STARKVILLE     CLOUDY    64  61  88 SE3       29.97F
GOLDEN TRIANGL CLOUDY    66  61  82 SE9       29.96F


...SOUTHEAST MISSOURI...

CITY           SKY/WX    TMP DP  RH WIND       PRES   REMARKS
WEST PLAINS    CLOUDY    66  59  78 SE10      30.02S
POPLAR BLUFF   CLOUDY    71  63  75 E7        30.00R
CAPE GIRARDEAU MOSUNNY   73  62  68 SE9       30.01R


...NORTHWEST ALABAMA...

CITY           SKY/WX    TMP DP  RH WIND       PRES   REMARKS
MUSCLE SHOALS  CLOUDY    68  61  78 E7        30.01R


...MIDDLE TENNESSEE...

CITY           SKY/WX    TMP DP  RH WIND       PRES   REMARKS
NASHVILLE      CLOUDY    73  61  65 SE3       30.01R
CLARKSVILLE    PTSUNNY   71  61  70 E7        30.01R
COLUMBIA       SUNNY     70  32  24 E7        29.99S


...WESTERN KENTUCKY...

CITY           SKY/WX    TMP DP  RH WIND       PRES   REMARKS
PADUCAH        MOSUNNY   74  61  63 E13       30.00R
FORT CAMPBELL  PTSUNNY   71  60  68 E7        30.01R


...CENTRAL ARKANSAS...

CITY           SKY/WX    TMP DP  RH WIND       PRES   REMARKS
LITTLE ROCK    CLOUDY    69  61  75 CALM      29.96S


SKY/WX REPORTED AS FAIR MEANS FEW OR NO CLOUDS BELOW
12 THOUSAND FEET.




USA.gov is the U.S. government's official web portal to all federal, state and local government web resources and services.